Location: Rooftop Observatory
(39.0308°N, 87.1711°W)
Time: 05:01:03
(UTC-05:00)

Terra - Visible Passes

Search period start: 28 May 2015 00:00
Search period end: 07 June 2015 00:00
Orbit: 701 x 703 km, 98.2° (Epoch: 27 May)

Date Brightness Start Highest point End Pass type
(mag) Time Alt. Az. Time Alt. Az. Time Alt. Az.
28 May 2.6 22:14:43 33° E 22:15:45 37° ENE 22:20:09 10° N visible
28 May 3.6 23:53:36 21° W 23:53:40 21° W 23:57:11 10° NW visible
29 May 4.0 21:19:57 10° ENE 21:21:13 11° ENE 21:22:46 10° NE visible
29 May 1.7 22:57:56 70° SSW 22:58:25 79° W 23:03:11 10° NNW visible
30 May 3.0 22:02:16 25° E 22:03:36 29° ENE 22:07:42 10° N visible
30 May 3.2 23:41:09 28° W 23:41:21 28° W 23:45:23 10° NW visible
31 May 1.7 22:45:29 63° SE 22:46:12 78° ENE 22:50:58 10° N visible
01 Jun 3.3 21:49:50 18° E 21:51:28 22° ENE 21:55:09 10° NNE visible
01 Jun 2.8 23:28:43 37° WSW 23:29:02 37° W 23:33:26 10° NNW visible
02 Jun 2.0 22:33:03 48° ESE 22:34:00 58° ENE 22:38:42 10° N visible
03 Jun 4.1 00:11:56 13° W 00:12:14 13° W 00:14:26 10° WNW visible
03 Jun 3.7 21:37:24 13° E 21:39:21 17° ENE 21:42:27 10° NNE visible
03 Jun 2.3 23:16:17 48° WSW 23:16:46 50° W 23:21:23 10° NNW visible
04 Jun 2.4 22:20:37 36° ESE 22:21:49 43° ENE 22:26:21 10° N visible
04 Jun 3.8 23:59:30 18° W 23:59:50 18° W 00:03:01 10° NW visible
05 Jun 3.9 21:25:15 10° E 21:27:15 13° ENE 21:29:29 10° NE visible
05 Jun 1.9 23:03:51 59° SSW 23:04:30 68° WSW 23:09:16 10° NNW visible
06 Jun 2.8 22:08:11 27° ESE 22:09:40 33° ENE 22:13:56 10° N visible
06 Jun 3.4 23:47:04 24° WSW 23:47:30 24° W 23:51:17 10° NW visible
